K5NCO Weather Reports


Display with metric or nautical units.
time (UTC)temp
F
wind
direction
speed
MPH
gust
MPH
rain 1hr
in
rain 24hr
in
rain mn
in
humidity
%
barometer
mb
20260902222844 98 305 0.0 0.0 0.00 0.00 0.00 40 1012.6
20260902222342 98 202 0.0 0.0 0.00 0.00 0.00 40 1012.7
20260902221837 98 196 0.0 0.0 0.00 0.00 0.00 40 1012.5
20260902221336 98 185 3.0 4.0 0.00 0.00 0.00 41 1012.7
20260902220832 98 179 0.0 0.0 0.00 0.00 0.00 41 1012.4
20260902220331 97 169 0.0 0.0 0.00 0.00 0.00 41 1012.6
20260902215826 97 130 3.0 4.0 0.00 0.00 0.00 41 1012.6
20260902215321 98 142 3.0 6.0 0.00 0.00 0.00 41 1012.7
20260902214817 97 164 6.0 7.0 0.00 0.00 0.00 41 1012.8
20260902214316 97 108 4.0 7.0 0.00 0.00 0.00 41 1012.9
20260902213811 98 141 1.0 3.0 0.00 0.00 0.00 41 1012.9
20260902213307 98 221 0.0 1.0 0.00 0.00 0.00 40 1012.9
20260902212805 98 171 2.0 2.0 0.00 0.00 0.00 40 1013.0
20260902212305 98 140 0.0 0.0 0.00 0.00 0.00 40 1012.9
20260902211758 98 14 0.0 0.0 0.00 0.00 0.00 40 1012.9
20260902211254 98 323 0.0 0.0 0.00 0.00 0.00 41 1013.1
20260902210754 98 315 2.0 2.0 0.00 0.00 0.00 40 1013.0
20260902210249 98 316 1.0 2.0 0.00 0.00 0.00 39 1013.0
20260902205747 99 218 0.0 1.0 0.00 0.00 0.00 39 1013.4
20260902205242 99 236 2.0 4.0 0.00 0.00 0.00 40 1013.4
20260902204737 99 176 2.0 2.0 0.00 0.00 0.00 40 1013.4
20260902204232 98 318 1.0 4.0 0.00 0.00 0.00 40 1013.2
20260902203727 99 252 5.0 7.0 0.00 0.00 0.00 40 1013.4
20260902203222 99 120 3.0 4.0 0.00 0.00 0.00 40 1013.6
20260902202716 99 249 4.0 7.0 0.00 0.00 0.00 39 1013.8
20260902202213 100 203 2.0 6.0 0.00 0.00 0.00 39 1013.8
20260902201709 100 260 2.0 3.0 0.00 0.00 0.00 39 1013.7
20260902201208 100 338 6.0 8.0 0.00 0.00 0.00 39 1013.9
20260902200703 99 30 0.0 0.0 0.00 0.00 0.00 40 1014.0
20260902200159 98 71 3.0 4.0 0.00 0.00 0.00 41 1014.0
20260902195649 98 333 6.0 8.0 0.00 0.00 0.00 41 1014.1
20260902195148 97 329 4.0 4.0 0.00 0.00 0.00 42 1014.2
20260902194647 96 342 2.0 2.0 0.00 0.00 0.00 43 1014.4
20260902194142 97 302 2.0 2.0 0.00 0.00 0.00 43 1014.3
20260902193638 98 331 4.0 6.0 0.00 0.00 0.00 42 1014.5
20260902193133 98 322 0.0 0.0 0.00 0.00 0.00 42 1014.4
20260902192631 97 220 0.0 1.0 0.00 0.00 0.00 42 1014.5
20260902192131 97 3 4.0 6.0 0.00 0.00 0.00 41 1014.7
20260902191625 98 312 2.0 3.0 0.00 0.00 0.00 42 1014.8
20260902191120 97 255 0.0 0.0 0.00 0.00 0.00 42 1015.0
20260902190616 96 226 2.0 2.0 0.00 0.00 0.00 43 1014.9
20260902190110 98 231 5.0 6.0 0.00 0.00 0.00 42 1015.1
20260902185606 97 139 3.0 3.0 0.00 0.00 0.00 43 1015.0
20260902185102 97 228 3.0 3.0 0.00 0.00 0.00 42 1015.4
20260902184557 98 177 5.0 6.0 0.00 0.00 0.00 43 1015.3
20260902184052 98 173 1.0 2.0 0.00 0.00 0.00 41 1015.4
20260902183548 98 212 4.0 4.0 0.00 0.00 0.00 40 1015.5
20260902183045 96 291 4.0 6.0 0.00 0.00 0.00 43 1015.6
20260902182540 97 245 3.0 4.0 0.00 0.00 0.00 43 1015.8
20260902182037 95 109 0.0 0.0 0.00 0.00 0.00 44 1015.8
20260902181533 96 99 0.0 0.0 0.00 0.00 0.00 44 1015.9
20260902181026 96 264 4.0 6.0 0.00 0.00 0.00 45 1016.2
20260902180520 96 246 5.0 6.0 0.00 0.00 0.00 44 1016.0
20260902180016 96 147 0.0 2.0 0.00 0.00 0.00 44 1016.1
20260902175510 95 124 0.0 1.0 0.00 0.00 0.00 46 1016.4
20260902175007 96 175 6.0 7.0 0.00 0.00 0.00 44 1016.5
20260902174503 94 330 2.0 2.0 0.00 0.00 0.00 46 1016.5
20260902173958 94 140 4.0 4.0 0.00 0.00 0.00 46 1016.5
20260902173458 95 168 6.0 6.0 0.00 0.00 0.00 46 1016.6
20260902172953 95 222 1.0 2.0 0.00 0.00 0.00 45 1016.8
20260902172452 95 217 4.0 6.0 0.00 0.00 0.00 46 1016.7
20260902171948 95 221 6.0 7.0 0.00 0.00 0.00 45 1016.9
20260902171443 95 241 2.0 2.0 0.00 0.00 0.00 48 1017.0
20260902170939 94 187 7.0 8.0 0.00 0.00 0.00 48 1017.0
20260902170434 94 213 5.0 6.0 0.00 0.00 0.00 48 1017.0
20260902165930 93 272 5.0 6.0 0.00 0.00 0.00 48 1017.1
20260902165428 93 205 3.0 4.0 0.00 0.00 0.00 48 1017.2
20260902164923 93 261 2.0 4.0 0.00 0.00 0.00 48 1017.2
20260902164418 93 179 2.0 3.0 0.00 0.00 0.00 50 1017.4
20260902163917 93 250 4.0 4.0 0.00 0.00 0.00 49 1017.4
20260902163413 93 217 6.0 8.0 0.00 0.00 0.00 49 1017.4
20260902162910 92 173 5.0 7.0 0.00 0.00 0.00 49 1017.6
20260902162406 92 176 4.0 4.0 0.00 0.00 0.00 49 1017.5
20260902161900 92 210 2.0 2.0 0.00 0.00 0.00 49 1017.3
20260902161355 93 220 2.0 3.0 0.00 0.00 0.00 49 1017.6
20260902160851 93 262 2.0 2.0 0.00 0.00 0.00 48 1017.3
20260902160347 92 238 3.0 4.0 0.00 0.00 0.00 50 1017.4
20260902155844 91 179 5.0 6.0 0.00 0.00 0.00 51 1017.3
20260902155343 90 256 4.0 4.0 0.00 0.00 0.00 52 1017.3
20260902154839 90 242 5.0 6.0 0.00 0.00 0.00 52 1017.5
20260902154335 90 265 6.0 7.0 0.00 0.00 0.00 53 1017.5
20260902153833 90 262 3.0 4.0 0.00 0.00 0.00 55 1017.5
20260902153332 89 236 4.0 6.0 0.00 0.00 0.00 56 1017.5
20260902152829 90 252 4.0 4.0 0.00 0.00 0.00 58 1017.6
20260902152325 90 233 3.0 4.0 0.00 0.00 0.00 55 1017.6
20260902151820 88 251 1.0 2.0 0.00 0.00 0.00 58 1017.6
20260902151315 87 262 3.0 6.0 0.00 0.00 0.00 60 1017.6
20260902150809 87 277 6.0 8.0 0.00 0.00 0.00 60 1017.5
20260902150306 86 235 5.0 6.0 0.00 0.00 0.00 62 1017.5
20260902145805 86 227 4.0 6.0 0.00 0.00 0.00 63 1017.4
20260902145301 87 252 3.0 6.0 0.00 0.00 0.00 62 1017.6
20260902144756 87 199 2.0 2.0 0.00 0.00 0.00 63 1017.5
20260902144252 86 247 4.0 6.0 0.00 0.00 0.00 64 1017.6
20260902143746 86 234 5.0 7.0 0.00 0.00 0.00 64 1017.4
20260902143241 86 262 3.0 4.0 0.00 0.00 0.00 64 1017.4
20260902142737 85 253 4.0 8.0 0.00 0.00 0.00 65 1017.5
20260902142232 86 254 5.0 8.0 0.00 0.00 0.00 64 1017.5
20260902141727 85 227 4.0 4.0 0.00 0.00 0.00 66 1017.6
20260902141223 85 205 1.0 2.0 0.00 0.00 0.00 67 1017.5
20260902140718 84 232 1.0 1.0 0.00 0.00 0.00 68 1017.5
20260902140213 83 236 0.0 0.0 0.00 0.00 0.00 69 1017.5
20260902135712 83 238 2.0 2.0 0.00 0.00 0.00 69 1017.3
20260902135208 83 121 4.0 4.0 0.00 0.00 0.00 69 1017.3
20260902134707 83 225 2.0 3.0 0.00 0.00 0.00 69 1017.3
20260902134202 83 238 1.0 2.0 0.00 0.00 0.00 70 1017.2
20260902133657 83 248 2.0 3.0 0.00 0.00 0.00 70 1017.4
20260902133156 82 205 1.0 2.0 0.00 0.00 0.00 71 1017.2
20260902132647 82 255 1.0 2.0 0.00 0.00 0.00 71 1017.2
20260902132142 82 234 2.0 3.0 0.00 0.00 0.00 71 1017.2
20260902131638 81 222 1.0 1.0 0.00 0.00 0.00 72 1017.2
20260902131133 81 201 2.0 2.0 0.00 0.00 0.00 72 1017.2
20260902130629 80 219 2.0 2.0 0.00 0.00 0.00 73 1017.1
20260902130124 80 238 1.0 1.0 0.00 0.00 0.00 75 1017.1
20260902125620 79 198 0.0 0.0 0.00 0.00 0.00 76 1017.0
20260902125115 79 221 0.0 0.0 0.00 0.00 0.00 77 1016.9
20260902124612 78 204 1.0 1.0 0.00 0.00 0.00 78 1016.9
20260902124111 78 199 2.0 2.0 0.00 0.00 0.00 78 1016.8
20260902123607 78 203 0.0 0.0 0.00 0.00 0.00 78 1017.0
20260902123102 78 176 0.0 0.0 0.00 0.00 0.00 78 1016.9
20260902122601 78 167 0.0 0.0 0.00 0.00 0.00 79 1016.7
20260902122057 78 82 0.0 0.0 0.00 0.00 0.00 78 1016.7
20260902121557 78 82 0.0 0.0 0.00 0.00 0.00 78 1016.8
20260902121052 79 82 0.0 0.0 0.00 0.00 0.00 78 1016.6
20260902120548 79 80 0.0 0.0 0.00 0.00 0.00 78 1016.7
20260902120044 79 95 0.0 0.0 0.00 0.00 0.00 77 1016.7
20260902115539 78 197 0.0 0.0 0.00 0.00 0.00 78 1016.8
20260902115035 79 202 0.0 0.0 0.00 0.00 0.00 77 1016.7
20260902114530 79 201 0.0 0.0 0.00 0.00 0.00 77 1016.6
20260902114025 79 198 1.0 2.0 0.00 0.00 0.00 77 1016.6
20260902113520 79 223 0.0 0.0 0.00 0.00 0.00 77 1016.4
20260902113016 79 226 1.0 2.0 0.00 0.00 0.00 77 1016.4
20260902112511 79 247 2.0 3.0 0.00 0.00 0.00 77 1016.3
20260902112008 79 229 1.0 1.0 0.00 0.00 0.00 77 1016.3
20260902111503 79 220 1.0 2.0 0.00 0.00 0.00 77 1016.3
20260902110959 79 248 2.0 2.0 0.00 0.00 0.00 76 1016.4
20260902110455 79 224 3.0 3.0 0.00 0.00 0.00 77 1016.2
20260902105950 79 167 3.0 4.0 0.00 0.00 0.00 77 1016.2
20260902105444 79 181 3.0 3.0 0.00 0.00 0.00 77 1016.2
20260902104939 80 206 2.0 2.0 0.00 0.00 0.00 76 1016.4
20260902104435 80 186 2.0 2.0 0.00 0.00 0.00 76 1016.4
20260902103935 80 206 1.0 1.0 0.00 0.00 0.00 76 1016.3
20260902103430 80 193 3.0 4.0 0.00 0.00 0.00 75 1016.4
20260902102925 80 186 1.0 2.0 0.00 0.00 0.00 75 1016.4
20260902102422 80 205 1.0 2.0 0.00 0.00 0.00 75 1016.5
20260902101918 80 196 2.0 2.0 0.00 0.00 0.00 75 1016.4
20260902101412 80 199 2.0 2.0 0.00 0.00 0.00 75 1016.3
20260902100912 80 213 2.0 2.0 0.00 0.00 0.00 75 1016.2
20260902100406 80 224 1.0 2.0 0.00 0.00 0.00 75 1016.3
20260902095900 80 215 2.0 3.0 0.00 0.00 0.00 75 1016.3
20260902095354 80 192 1.0 2.0 0.00 0.00 0.00 76 1016.5
20260902094849 80 201 3.0 3.0 0.00 0.00 0.00 76 1016.4
20260902094345 80 226 3.0 3.0 0.00 0.00 0.00 76 1016.5
20260902093844 80 230 3.0 3.0 0.00 0.00 0.00 77 1016.4
20260902093340 80 222 0.0 0.0 0.00 0.00 0.00 77 1016.4
20260902092838 80 208 0.0 0.0 0.00 0.00 0.00 78 1016.3
20260902092334 80 208 0.0 0.0 0.00 0.00 0.00 78 1016.5
20260902091829 80 199 1.0 1.0 0.00 0.00 0.00 78 1016.5
20260902091325 80 183 1.0 1.0 0.00 0.00 0.00 78 1016.4
20260902090821 80 183 1.0 1.0 0.00 0.00 0.00 78 1016.4
20260902090320 80 205 2.0 2.0 0.00 0.00 0.00 78 1016.4
20260902085820 80 163 3.0 3.0 0.00 0.00 0.00 78 1016.5
20260902085315 80 161 3.0 3.0 0.00 0.00 0.00 77 1016.5
20260902084810 80 150 2.0 2.0 0.00 0.00 0.00 77 1016.5
20260902084307 80 146 2.0 2.0 0.00 0.00 0.00 77 1016.4
20260902083801 80 130 0.0 0.0 0.00 0.00 0.00 77 1016.4
20260902083256 80 173 0.0 0.0 0.00 0.00 0.00 77 1016.6
20260902082751 80 164 0.0 0.0 0.00 0.00 0.00 77 1016.8
20260902082248 80 157 1.0 1.0 0.00 0.00 0.00 77 1016.7
20260902081743 80 121 1.0 2.0 0.00 0.00 0.00 76 1016.5
20260902081239 80 110 3.0 3.0 0.00 0.00 0.00 76 1016.8
20260902080734 80 132 1.0 1.0 0.00 0.00 0.00 76 1016.8
20260902080231 80 87 0.0 1.0 0.00 0.00 0.00 76 1016.7
20260902075730 80 88 2.0 2.0 0.00 0.00 0.00 75 1016.9
20260902075226 80 83 2.0 2.0 0.00 0.00 0.00 75 1016.8
20260902074726 80 86 0.0 0.0 0.00 0.00 0.00 75 1016.8
20260902074222 81 57 2.0 2.0 0.00 0.00 0.00 74 1016.8
20260902073717 81 55 1.0 2.0 0.00 0.00 0.00 74 1017.0
20260902073213 81 98 1.0 1.0 0.00 0.00 0.00 73 1016.8
20260902072709 81 120 0.0 1.0 0.00 0.00 0.00 73 1016.9
20260902072205 81 83 1.0 2.0 0.00 0.00 0.00 73 1016.9
20260902071701 81 95 3.0 3.0 0.00 0.00 0.00 73 1016.7
20260902071155 81 84 0.0 0.0 0.00 0.00 0.00 73 1016.8
20260902070652 81 80 4.0 4.0 0.00 0.00 0.00 72 1017.0
20260902070151 81 68 2.0 2.0 0.00 0.00 0.00 72 1017.0
20260902065650 82 77 1.0 1.0 0.00 0.00 0.00 72 1016.9
20260902065146 82 127 0.0 0.0 0.00 0.00 0.00 72 1017.1
20260902064641 82 52 1.0 1.0 0.00 0.00 0.00 71 1017.0
20260902064137 82 66 2.0 2.0 0.00 0.00 0.00 71 1017.0
20260902063632 82 105 0.0 1.0 0.00 0.00 0.00 71 1017.0
20260902063127 82 43 1.0 2.0 0.00 0.00 0.00 71 1017.0
20260902062626 82 50 2.0 3.0 0.00 0.00 0.00 71 1017.2
20260902062121 82 39 2.0 3.0 0.00 0.00 0.00 71 1017.0
20260902061620 83 80 1.0 2.0 0.00 0.00 0.00 70 1016.9
20260902061116 83 65 1.0 1.0 0.00 0.00 0.00 70 1016.9
20260902060613 83 83 0.0 1.0 0.00 0.00 0.00 69 1017.0
20260902060109 84 81 4.0 4.0 0.00 0.00 0.00 69 1017.0
20260902055604 84 107 2.0 2.0 0.00 0.00 0.00 69 1016.9
20260902055059 84 103 2.0 3.0 0.00 0.00 0.00 69 1017.1
20260902054554 84 85 2.0 2.0 0.00 0.00 0.00 68 1017.0
20260902054050 84 127 2.0 3.0 0.00 0.00 0.00 68 1017.0
20260902053544 84 128 0.0 0.0 0.00 0.00 0.00 67 1016.8
20260902053039 84 92 1.0 2.0 0.00 0.00 0.00 67 1016.7
20260902052533 84 74 4.0 6.0 0.00 0.00 0.00 67 1016.6
20260902052029 85 71 4.0 4.0 0.00 0.00 0.00 67 1016.7
20260902051529 85 126 2.0 2.0 0.00 0.00 0.00 66 1016.6
20260902051028 85 83 3.0 3.0 0.00 0.00 0.00 66 1016.7
20260902050523 86 119 3.0 4.0 0.00 0.00 0.00 65 1016.9
20260902050018 86 120 3.0 6.0 0.00 0.00 0.00 65 1016.7
20260902045513 86 164 4.0 6.0 0.00 0.00 0.00 64 1016.6
20260902045010 86 131 8.0 9.0 0.00 0.00 0.00 64 1016.8
20260902044504 86 107 4.0 4.0 0.00 0.00 0.00 64 1016.7
20260902044000 86 139 4.0 4.0 0.00 0.00 0.00 63 1016.8
20260902043455 87 125 4.0 4.0 0.00 0.00 0.00 63 1017.0
20260902042950 87 99 6.0 7.0 0.00 0.00 0.00 63 1017.0
20260902042449 87 99 1.0 2.0 0.00 0.00 0.00 62 1017.0
20260902041944 87 88 4.0 6.0 0.00 0.00 0.00 61 1016.9
20260902041438 87 123 2.0 3.0 0.00 0.00 0.00 62 1016.7
20260902040938 87 122 5.0 6.0 0.00 0.00 0.00 61 1016.6
20260902040428 87 113 3.0 4.0 0.00 0.00 0.00 61 1016.7
20260902035926 88 141 5.0 7.0 0.00 0.00 0.00 60 1016.6
20260902035421 88 89 4.0 6.0 0.00 0.00 0.00 60 1016.7
20260902034920 88 132 2.0 3.0 0.00 0.00 0.00 60 1016.6
20260902034415 88 143 4.0 4.0 0.00 0.00 0.00 60 1016.5
20260902033915 88 169 3.0 4.0 0.00 0.00 0.00 60 1016.5
20260902033409 88 129 2.0 2.0 0.00 0.00 0.00 59 1016.2
20260902032908 89 123 2.0 2.0 0.00 0.00 0.00 59 1016.4
20260902032403 88 163 2.0 2.0 0.00 0.00 0.00 59 1016.3
20260902031903 89 136 2.0 2.0 0.00 0.00 0.00 59 1016.2
20260902031359 89 144 4.0 4.0 0.00 0.00 0.00 58 1016.3
20260902030854 89 170 4.0 4.0 0.00 0.00 0.00 58 1016.3
20260902030348 89 123 3.0 3.0 0.00 0.00 0.00 58 1016.2
20260902025847 89 103 2.0 2.0 0.00 0.00 0.00 57 1016.1
20260902025343 89 123 4.0 7.0 0.00 0.00 0.00 57 1015.8
20260902024838 89 101 3.0 3.0 0.00 0.00 0.00 57 1015.4
20260902024334 89 103 4.0 4.0 0.00 0.00 0.00 56 1015.4
20260902023829 89 90 4.0 4.0 0.00 0.00 0.00 56 1015.6
20260902023324 89 124 2.0 3.0 0.00 0.00 0.00 56 1015.4
20260902022823 90 116 6.0 7.0 0.00 0.00 0.00 55 1015.4
20260902022318 90 116 5.0 7.0 0.00 0.00 0.00 55 1015.4
20260902021814 90 132 4.0 6.0 0.00 0.00 0.00 54 1015.3
20260902021309 90 71 4.0 6.0 0.00 0.00 0.00 54 1015.1
20260902020805 90 101 5.0 9.0 0.00 0.00 0.00 53 1015.3
20260902020301 90 95 3.0 3.0 0.00 0.00 0.00 53 1015.2
20260902015756 90 75 3.0 4.0 0.00 0.00 0.00 53 1014.9
20260902015253 91 77 4.0 4.0 0.00 0.00 0.00 52 1014.9
20260902014748 91 122 2.0 3.0 0.00 0.00 0.00 52 1014.9
20260902014244 91 61 4.0 4.0 0.00 0.00 0.00 52 1014.7
20260902013743 91 48 5.0 6.0 0.00 0.00 0.00 51 1014.6
20260902013238 91 17 2.0 4.0 0.00 0.00 0.00 51 1014.6
20260902012733 92 75 7.0 9.0 0.00 0.00 0.00 50 1014.6
20260902012230 92 97 4.0 6.0 0.00 0.00 0.00 49 1014.5
20260902011724 92 82 5.0 8.0 0.00 0.00 0.00 49 1014.6
20260902011223 92 89 4.0 6.0 0.00 0.00 0.00 48 1014.5
20260902010718 93 97 2.0 3.0 0.00 0.00 0.00 46 1014.6
20260902010214 93 135 1.0 1.0 0.00 0.00 0.00 46 1014.5
20260902005712 93 92 4.0 7.0 0.00 0.00 0.00 45 1014.4
20260902005208 93 91 3.0 4.0 0.00 0.00 0.00 45 1014.4
20260902004708 94 41 3.0 4.0 0.00 0.00 0.00 45 1014.5
20260902004202 94 68 1.0 2.0 0.00 0.00 0.00 45 1014.5
20260902003652 94 98 5.0 6.0 0.00 0.00 0.00 45 1014.6
20260902003147 95 84 6.0 8.0 0.00 0.00 0.00 45 1014.7
20260902002643 95 61 4.0 6.0 0.00 0.00 0.00 45 1014.6
20260902002142 95 64 2.0 3.0 0.00 0.00 0.00 45 1014.7
20260902001638 95 66 2.0 4.0 0.00 0.00 0.00 45 1014.4
20260902001132 95 41 3.0 3.0 0.00 0.00 0.00 45 1014.6
20260902000627 95 76 6.0 10.0 0.00 0.00 0.00 44 1014.6
20260902000122 96 46 7.0 9.0 0.00 0.00 0.00 44 1014.4
20260901235622 96 51 5.0 9.0 0.00 0.00 0.00 43 1014.5
20260901235118 96 94 5.0 7.0 0.00 0.00 0.00 40 1014.5
20260901234616 96 92 2.0 3.0 0.00 0.00 0.00 40 1014.4
20260901234112 96 65 2.0 4.0 0.00 0.00 0.00 41 1014.3
20260901233607 96 36 8.0 10.0 0.00 0.00 0.00 41 1014.4
20260901233103 96 57 4.0 7.0 0.00 0.00 0.00 41 1014.4
20260901232557 96 42 3.0 4.0 0.00 0.00 0.00 41 1014.5
20260901232058 97 70 4.0 7.0 0.00 0.00 0.00 41 1014.3
20260901231554 97 103 3.0 4.0 0.00 0.00 0.00 43 1014.4
20260901231050 97 62 3.0 4.0 0.00 0.00 0.00 43 1014.4
20260901230546 97 35 4.0 4.0 0.00 0.00 0.00 43 1014.5
20260901230040 97 35 2.0 3.0 0.00 0.00 0.00 43 1014.6
20260901225535 98 52 7.0 9.0 0.00 0.00 0.00 42 1014.6
20260901225035 98 17 4.0 6.0 0.00 0.00 0.00 42 1014.6
20260901224531 97 34 5.0 8.0 0.00 0.00 0.00 42 1014.5
20260901224027 97 62 3.0 6.0 0.00 0.00 0.00 43 1014.5
20260901223522 97 139 3.0 6.0 0.00 0.00 0.00 43 1014.4